Location: Newark
(34.7667°N, 118.4167°W)
Time: 07:11:57
(UTC+00:00)

Envisat - Visible Passes

Search period start: 18 October 2019 00:00
Search period end: 28 October 2019 00:00
Orbit: 764 x 766 km, 98.1° (Epoch: 18 October)

Date Brightness Start Highest point End Pass type
(mag) Time Alt. Az. Time Alt. Az. Time Alt. Az.
18 Oct 3.0 02:00:39 10° SSE 02:05:43 83° ENE 02:10:50 10° N visible
19 Oct 5.4 03:04:15 10° SW 03:08:09 22° W 03:12:05 10° NW visible
19 Oct 6.3 13:37:58 10° NE 13:41:01 16° E 13:44:01 10° SE visible
20 Oct 3.8 02:26:17 10° S 02:31:14 53° W 02:36:12 10° NNW visible
21 Oct 3.0 01:49:28 10° SSE 01:54:29 64° ENE 01:59:31 10° N visible
21 Oct 6.2 03:32:07 10° WSW 03:33:52 12° W 03:35:38 10° WNW visible
22 Oct 5.0 02:52:28 10° SSW 02:56:49 29° W 03:01:11 10° NW visible
22 Oct 6.6 13:27:47 10° ENE 13:29:39 12° E 13:31:29 10° ESE visible
23 Oct 3.3 02:14:54 10° S 02:19:57 69° WSW 02:25:01 10° NNW visible
24 Oct 3.2 01:38:23 10° SSE 01:43:15 50° ENE 01:48:09 10° N visible
24 Oct 5.9 03:19:32 10° SW 03:22:30 16° W 03:25:29 10° WNW visible
25 Oct 4.5 02:40:51 10° SSW 02:45:30 37° W 02:50:12 10° NNW visible
26 Oct 3.0 02:03:37 10° SSE 02:08:41 89° WSW 02:13:47 10° NNW visible
27 Oct 3.5 01:27:23 10° SE 01:32:03 38° ENE 01:36:44 10° N visible
27 Oct 5.6 03:07:28 10° SW 03:11:09 20° W 03:14:51 10° NW visible
27 Oct 6.1 13:40:41 10° NE 13:44:01 17° E 13:47:21 10° SE visible
